Weather History for KIZG - August, 2012

Change the Weather History Date:

Thursday, August 9, 2012

  Actual Average Record
Temperature  
Mean Temperature 70 °F -  
Max Temperature 86 °F 80 °F 100 °F (2001)
Min Temperature 57 °F 54 °F 43 °F (2002)
Cooling Degree Days 6    
Growing Degree Days 20 (Base 50)    
Moisture  
Dew Point 62 °F    
Average Humidity 89    
Maximum Humidity 100    
Minimum Humidity 56    
Precipitation  
Precipitation 1.33 in - - ()
Sea Level Pressure  
Sea Level Pressure 29.95 in    
Wind  
Wind Speed 1 mph (NE)    
Max Wind Speed 15 mph    
Max Gust Speed 25 mph    
Visibility 5 miles    
Events Fog , Rain , Thunderstorm    
Averages and records for this station are not official NWS values.
T = Trace of Precipitation, MM = Missing Value Source: NWS Daily Summary

Daily Weather History Graph

Daily Weather History Graph

Search for Another Location

Airport or City:

Trip Planner

Search our weather history database for the weather conditions in past years. The results will help you decide how hot, cold, wet, or windy it might be!

Date:

Astronomy

Aug. 09, 2012 Rise Set
Actual Time 5:41 AM EDT 7:56 PM EDT
Civil Twilight 5:09 AM EDT 8:28 PM EDT
Nautical Twilight 4:29 AM EDT 9:07 PM EDT
Astronomical Twilight 3:45 AM EDT 9:51 PM EDT
Moon 11:27 PM EDT (8/9) 1:38 PM EDT (8/9)
Length of Visible Light 15h 18m
Length of Day
14h 14m
Waning Gibbous, 51% of the Moon is Illuminated
Aug 9
Waning Gibbous
Aug 9
Last Quarter
Aug 17
New
Aug 24
First Quarter
Aug 31
Full

Hourly Weather History & Observations

Time (EDT) Temp. Heat Index Dew Point Humidity Pressure Visibility Wind Dir Wind Speed Gust Speed Precip Events Conditions
12:54 AM 63.0 °F - 61.0 °F 93% 29.96 in 10.0 mi Calm Calm - N/A   Partly Cloudy
1:54 AM 62.1 °F - 61.0 °F 96% 29.96 in 7.0 mi Calm Calm - N/A   Clear
2:24 AM 60.8 °F - 60.8 °F 100% 29.96 in 2.5 mi Calm Calm - N/A   Clear
2:31 AM 60.8 °F - 60.8 °F 100% 29.95 in 6.0 mi Calm Calm - N/A   Clear
2:54 AM 60.1 °F - 60.1 °F 100% 29.95 in 3.0 mi Calm Calm - N/A   Clear
3:01 AM 60.8 °F - 59.0 °F 94% 29.95 in 1.2 mi Calm Calm - N/A   Clear
3:08 AM 60.8 °F - 60.8 °F 100% 29.95 in 2.0 mi Calm Calm - N/A   Clear
3:15 AM 59.0 °F - 59.0 °F 100% 29.95 in 4.0 mi Calm Calm - N/A   Clear
3:35 AM 60.8 °F - 59.0 °F 94% 29.95 in 2.5 mi Calm Calm - N/A   Clear
3:44 AM 60.8 °F - 59.0 °F 94% 29.95 in 9.0 mi Calm Calm - N/A   Clear
3:54 AM 60.1 °F - 59.0 °F 96% 29.95 in 3.0 mi Calm Calm - N/A   Clear
4:01 AM 59.0 °F - 59.0 °F 100% 29.95 in 2.5 mi Calm Calm - N/A   Clear
4:13 AM 57.2 °F - 57.2 °F 100% 29.95 in 4.0 mi Calm Calm - N/A   Mostly Cloudy
4:24 AM 60.8 °F - 59.0 °F 94% 29.95 in 2.5 mi Calm Calm - N/A   Mostly Cloudy
4:31 AM 59.0 °F - 59.0 °F 100% 29.95 in 1.2 mi Calm Calm - N/A   Scattered Clouds
4:50 AM 59.0 °F - 59.0 °F 100% 29.95 in 1.5 mi Calm Calm - N/A   Clear
4:54 AM 59.0 °F - 59.0 °F 100% 29.95 in 1.2 mi Calm Calm - N/A   Clear
4:58 AM 59.0 °F - 59.0 °F 100% 29.95 in 1.5 mi Calm Calm - N/A   Partly Cloudy
5:00 AM 59.0 °F - 59.0 °F 100% 29.95 in 1.0 mi Calm Calm - N/A   Mist
5:08 AM 57.2 °F - 57.2 °F 100% 29.96 in 0.5 mi Calm Calm - N/A Fog Fog
5:23 AM 57.2 °F - 57.2 °F 100% 29.95 in 1.2 mi Calm Calm - N/A   Mostly Cloudy
5:37 AM 57.2 °F - 57.2 °F 100% 29.96 in 1.5 mi WSW 3.5 mph - N/A   Scattered Clouds
5:48 AM 57.2 °F - 57.2 °F 100% 29.96 in 1.0 mi NNW 3.5 mph - N/A   Mist
5:54 AM 59.0 °F - 57.9 °F 96% 29.96 in 0.8 mi Calm Calm - N/A   Mist
6:08 AM 59.0 °F - 59.0 °F 100% 29.96 in 1.5 mi Calm Calm - N/A   Mostly Cloudy
6:14 AM 59.0 °F - 57.2 °F 94% 29.96 in 2.5 mi Calm Calm - N/A   Scattered Clouds
6:21 AM 59.0 °F - 57.2 °F 94% 29.96 in 6.0 mi Calm Calm - N/A   Scattered Clouds
6:33 AM 59.0 °F - 59.0 °F 100% 29.96 in 1.8 mi Calm Calm - N/A   Partly Cloudy
6:40 AM 60.8 °F - 59.0 °F 94% 29.97 in 3.0 mi Calm Calm - N/A   Partly Cloudy
6:54 AM 61.0 °F - 59.0 °F 93% 29.96 in 10.0 mi Calm Calm - N/A   Partly Cloudy
7:54 AM 68.0 °F - 63.0 °F 84% 29.98 in 10.0 mi Calm Calm - N/A   Clear
8:54 AM 72.0 °F - 64.0 °F 76% 29.97 in 10.0 mi Calm Calm - 0.00 in   Clear
9:54 AM 77.0 °F - 64.9 °F 66% 29.96 in 10.0 mi Calm Calm - N/A   Clear
10:54 AM 79.0 °F - 66.0 °F 64% 29.96 in 10.0 mi ESE 3.5 mph - N/A   Clear
11:54 AM 79.0 °F - 66.9 °F 66% 29.95 in 10.0 mi Calm Calm - N/A   Overcast
12:54 PM 78.1 °F - 68.0 °F 71% 29.95 in 10.0 mi Calm Calm - N/A   Mostly Cloudy
1:54 PM 82.9 °F 85.8 °F 68.0 °F 60% 29.93 in 10.0 mi Calm Calm - N/A   Mostly Cloudy
2:54 PM 84.0 °F 86.5 °F 66.9 °F 56% 29.91 in 10.0 mi NE 3.5 mph - 0.00 in Rain Light Rain
3:54 PM 82.0 °F 84.5 °F 66.9 °F 60% 29.91 in 10.0 mi SE 9.2 mph 17.3 mph 0.00 in   Scattered Clouds
4:54 PM 81.0 °F 83.0 °F 66.0 °F 60% 29.90 in 10.0 mi SE 8.1 mph 16.1 mph N/A   Scattered Clouds
5:54 PM 79.0 °F - 66.9 °F 66% 29.91 in 10.0 mi SSE 3.5 mph - N/A   Mostly Cloudy
6:54 PM 77.0 °F - 66.9 °F 71% 29.90 in 10.0 mi Calm Calm - N/A   Partly Cloudy
7:54 PM 75.0 °F - 68.0 °F 79% 29.91 in 10.0 mi Calm Calm - N/A   Mostly Cloudy
8:54 PM 73.0 °F - 68.0 °F 84% 29.93 in 10.0 mi Calm Calm - N/A   Partly Cloudy
9:54 PM 73.0 °F - 66.9 °F 81% 29.94 in 10.0 mi ENE 3.5 mph - N/A   Overcast
10:54 PM 72.0 °F - 66.0 °F 81% 29.92 in 10.0 mi East 3.5 mph - N/A Thunderstorm Thunderstorm
11:29 PM 71.6 °F - 68.0 °F 88% 29.95 in 5.0 mi NW 15.0 mph 20.7 mph 0.05 in Rain , Thunderstorm Light Thunderstorms and Rain
11:32 PM 69.8 °F - 68.0 °F 94% 29.97 in 1.8 mi WNW 15.0 mph 23.0 mph 0.21 in Rain , Thunderstorm Heavy Thunderstorms and Rain
11:35 PM 69.8 °F - 68.0 °F 94% 29.98 in 0.8 mi WNW 12.7 mph 25.3 mph 0.51 in Rain , Thunderstorm Heavy Thunderstorms and Rain
11:45 PM 69.8 °F - 68.0 °F 94% 29.96 in 0.5 mi NNE 12.7 mph - 1.14 in Fog , Rain , Thunderstorm Heavy Thunderstorms and Rain
11:48 PM 69.8 °F - 68.0 °F 94% 29.96 in 0.8 mi NNE 9.2 mph 19.6 mph 1.20 in Rain , Thunderstorm Heavy Thunderstorms and Rain
11:54 PM 69.1 °F - 68.0 °F 96% 29.95 in 1.5 mi North 10.4 mph - 1.33 in Rain , Thunderstorm Heavy Thunderstorms and Rain